Location: Unspecified
(51.3762°N, 0.0000°E)
Time: 17:23:51
(UTC+00:00)

nSIGHT-1 - Pass Details

Date: 01 September 2019
Orbit: 341 x 348 km, 51.6° (Epoch: 23 September)

Event Time Altitude Azimuth Distance (km) Brightness Sun altitude
Exits shadow 01:56:08 10° 83° (E) 1,294 ? -25.2°
Drops below altitude 10° 01:56:08 10° 83° (E) 1,294 ? -25.2°
Sets 01:58:08 0° 83° (E) 2,136 ? -25.0°
